Change the Weather History Date:

Wednesday, March 28, 2012

  Actual Average Record
Temperature  
Mean Temperature 47 °F -  
Max Temperature 51 °F 52 °F 72 °F (1994)
Min Temperature 43 °F 33 °F 27 °F (1962)
Degree Days  
Heating Degree Days 18    
Moisture  
Dew Point 41 °F    
Average Humidity 77    
Maximum Humidity 91    
Minimum Humidity 59    
Precipitation  
Precipitation 0.08 in - - ()
Sea Level Pressure  
Sea Level Pressure 29.74 in    
Wind  
Wind Speed 13 mph (SSW)    
Max Wind Speed 23 mph    
Max Gust Speed 34 mph    
Visibility 10 miles    
Events Rain    
Averages and records for this station are not official NWS values.
T = Trace of Precipitation, MM = Missing Value Source: NWS Daily Summary

Daily Weather History Graph

Daily Weather History Graph

Search for Another Location

Airport or City:

Trip Planner

Search our weather history database for the weather conditions in past years. The results will help you decide how hot, cold, wet, or windy it might be!

Date:

Astronomy

Mar. 28, 2012 Rise Set
Actual Time 6:55 AM PDT 7:34 PM PDT
Civil Twilight 6:24 AM PDT 8:05 PM PDT
Nautical Twilight 5:48 AM PDT 8:42 PM PDT
Astronomical Twilight 5:10 AM PDT 9:20 PM PDT
Moon 9:56 AM PDT (3/28) 1:01 AM PDT (3/28)
Length of Visible Light 13h 40m
Length of Day
12h 38m
Waxing Crescent, 31% of the Moon is Illuminated
Mar 28
Waxing Crescent
Mar 30
First Quarter
Apr 6
Full
Apr 13
Last Quarter
Apr 21
New

Hourly Weather History & Observations

Time (PDT) Temp. Windchill Dew Point Humidity Pressure Visibility Wind Dir Wind Speed Gust Speed Precip Events Conditions
12:29 AM 48.2 °F - 44.6 °F 87% 29.56 in 10.0 mi South 8.1 mph - N/A   Mostly Cloudy
12:55 AM 47.3 °F - 44.1 °F 88% 29.58 in 10.0 mi West 10.4 mph - 0.00 in   Partly Cloudy
1:55 AM 48.6 °F - 41.0 °F 75% 29.59 in 10.0 mi SW 18.4 mph 23.0 mph N/A   Scattered Clouds
2:55 AM 49.5 °F - 39.0 °F 67% 29.62 in 10.0 mi South 18.4 mph - N/A   Mostly Cloudy
3:55 AM 49.5 °F - 36.5 °F 61% 29.62 in 10.0 mi SSW 15.0 mph - N/A   Mostly Cloudy
4:55 AM 48.6 °F - 36.3 °F 63% 29.63 in 10.0 mi South 13.8 mph - N/A   Mostly Cloudy
5:55 AM 47.7 °F - 35.1 °F 62% 29.65 in 10.0 mi South 13.8 mph - N/A   Partly Cloudy
6:55 AM 43.9 °F 39.9 °F 35.8 °F 73% 29.67 in 10.0 mi South 6.9 mph - N/A   Mostly Cloudy
7:55 AM 47.1 °F - 36.7 °F 67% 29.68 in 10.0 mi South 5.8 mph - N/A   Partly Cloudy
8:55 AM 50.0 °F - 36.3 °F 59% 29.69 in 10.0 mi South 16.1 mph 25.3 mph N/A   Mostly Cloudy
9:00 AM 50.0 °F - 37.4 °F 62% 29.68 in 10.0 mi SSW 18.4 mph 28.8 mph N/A Rain Light Rain
9:11 AM 50.0 °F - 37.4 °F 62% 29.69 in 10.0 mi South 12.7 mph - N/A   Overcast
9:55 AM 50.4 °F - 37.6 °F 62% 29.70 in 10.0 mi South 23.0 mph 34.5 mph 0.00 in   Scattered Clouds
10:55 AM 51.1 °F - 37.0 °F 59% 29.72 in 10.0 mi South 20.7 mph 28.8 mph N/A   Overcast
11:55 AM 50.5 °F - 37.8 °F 62% 29.73 in 10.0 mi South 18.4 mph 26.5 mph 0.00 in Rain Light Rain
12:21 PM 48.2 °F - 42.8 °F 82% 29.75 in 8.0 mi SSW 12.7 mph 25.3 mph N/A   Overcast
12:38 PM 46.4 °F 39.8 °F 41.0 °F 81% 29.75 in 9.0 mi SSW 16.1 mph 25.3 mph N/A Rain Light Rain
12:47 PM 46.4 °F 39.8 °F 42.8 °F 87% 29.75 in 10.0 mi SSW 16.1 mph 24.2 mph N/A   Overcast
12:50 PM 46.4 °F 40.1 °F 42.8 °F 87% 29.75 in 10.0 mi SSW 15.0 mph 24.2 mph N/A Rain Light Rain
12:55 PM 46.9 °F - 42.8 °F 86% 29.76 in 10.0 mi SSW 16.1 mph 20.7 mph 0.01 in Rain Light Rain
1:55 PM 47.5 °F - 43.2 °F 85% 29.78 in 10.0 mi South 16.1 mph - 0.02 in Rain Light Rain
2:08 PM 48.2 °F - 44.6 °F 87% 29.78 in 10.0 mi South 12.7 mph - N/A   Mostly Cloudy
2:55 PM 49.5 °F - 43.2 °F 79% 29.79 in 10.0 mi South 12.7 mph 20.7 mph 0.00 in   Overcast
2:57 PM 50.0 °F - 42.8 °F 76% 29.79 in 10.0 mi South 13.8 mph - N/A Rain Light Rain
3:18 PM 48.2 °F - 42.8 °F 82% 29.79 in 10.0 mi South 11.5 mph - N/A Rain Light Rain
3:20 PM 48.2 °F - 42.8 °F 82% 29.79 in 10.0 mi South 11.5 mph - N/A Rain Light Rain
3:23 PM 50.0 °F - 42.8 °F 76% 29.79 in 10.0 mi SSW 9.2 mph - N/A   Overcast
3:31 PM 50.0 °F - 42.8 °F 76% 29.79 in 10.0 mi SSW 10.4 mph - N/A Rain Light Rain
3:37 PM 48.2 °F - 42.8 °F 82% 29.79 in 10.0 mi SSW 6.9 mph - N/A Rain Light Rain
3:38 PM 48.2 °F - 42.8 °F 82% 29.79 in 10.0 mi SSW 6.9 mph - N/A Rain Light Rain
3:41 PM 50.0 °F - 42.8 °F 76% 29.79 in 10.0 mi SSW 8.1 mph - N/A   Overcast
3:54 PM 50.0 °F - 42.8 °F 76% 29.79 in 10.0 mi WSW 5.8 mph - N/A   Overcast
3:55 PM 49.5 °F - 43.2 °F 79% 29.79 in 10.0 mi SW 6.9 mph - 0.00 in   Overcast
3:56 PM 50.0 °F - 42.8 °F 76% 29.79 in 10.0 mi SSW 6.9 mph - N/A Rain Light Rain
3:57 PM 50.0 °F - 42.8 °F 76% 29.80 in 10.0 mi SSW 8.1 mph - N/A Rain Light Rain
4:04 PM 48.2 °F - 41.0 °F 76% 29.80 in 10.0 mi SSW 17.3 mph 26.5 mph N/A Rain Light Rain
4:40 PM 48.2 °F - 42.8 °F 82% 29.80 in 10.0 mi South 19.6 mph 24.2 mph N/A   Overcast
4:41 PM 46.4 °F 38.7 °F 42.8 °F 87% 29.80 in 10.0 mi South 20.7 mph - N/A Rain Light Rain
4:55 PM 46.4 °F 41.1 °F 43.2 °F 88% 29.80 in 10.0 mi South 11.5 mph - 0.03 in Rain Light Rain
4:58 PM 46.4 °F 41.5 °F 42.8 °F 87% 29.80 in 10.0 mi South 10.4 mph - N/A   Overcast
5:55 PM 48.4 °F - 43.7 °F 84% 29.80 in 10.0 mi South 12.7 mph - 0.00 in   Mostly Cloudy
6:06 PM 48.2 °F - 42.8 °F 82% 29.81 in 10.0 mi South 19.6 mph - N/A Rain Light Rain
6:52 PM 44.6 °F 37.4 °F 39.2 °F 81% 29.82 in 10.0 mi South 16.1 mph 27.6 mph N/A   Mostly Cloudy
6:55 PM 44.4 °F 38.6 °F 39.2 °F 82% 29.82 in 10.0 mi South 11.5 mph 27.6 mph 0.02 in   Scattered Clouds
7:55 PM 43.3 °F 39.2 °F 41.0 °F 91% 29.81 in 10.0 mi South 6.9 mph - N/A   Mostly Cloudy
8:55 PM 44.8 °F 40.4 °F 39.4 °F 81% 29.78 in 10.0 mi SSE 8.1 mph - N/A   Clear
9:55 PM 45.9 °F 40.8 °F 38.8 °F 76% 29.75 in 10.0 mi SSE 10.4 mph - N/A   Mostly Cloudy
10:55 PM 45.7 °F 39.5 °F 39.2 °F 78% 29.72 in 10.0 mi SSE 13.8 mph - N/A   Partly Cloudy
11:55 PM 46.2 °F 39.5 °F 39.0 °F 76% 29.69 in 10.0 mi SSE 16.1 mph - N/A   Scattered Clouds